Location: Quaker Farms
(41.4276°N, 73.1557°W)
Time: 00:08:47
(UTC+00:00)

Vanguard 1 - Pass Details

Date: 18 June 2021
Orbit: 651 x 3832 km, 34.2° (Epoch: 26 July)

Event Time Altitude Azimuth Distance (km) Brightness Sun altitude
Rises 03:48:03 0° 251° (WSW) 7,957 14.7 -23.4°
Reaches altitude 10° 03:53:46 10° 249° (WSW) 6,818 14.3 -23.7°
Maximum altitude 04:14:53 65° 175° (S) 2,964 12.1 -24.5°
Drops below altitude 10° 04:27:11 10° 97° (E) 4,237 13.2 -24.9°
Sets 04:29:50 0° 94° (E) 4,909 13.6 -24.9°
